[[{"header":{"parameterUnit":"m.s-1","parameterCategory":1,"la1":30.2991,"la2":30.254,"lo1":-89.0895,"lo2":-89.0444,"dy":0.0017,"dx":0.0017,"nx":28,"ny":28,"refTime":"2025-07-20T21:00:00:Z","depth":0,"parameterNumber":2,"parameterNumberName":"U-component_of_WINDS"},"data":[0,0,0,0,0,0,0,0,0,0,0,0,0,0,0,0,0,0,0,0,0,0,0,0,0,0,0,0,0,0,0,0,0,0,0,0,0,0,0,0,0,0,0,0,0,0,0,0,0,0,0,0,0,0,0,0,0,0,3.151,3.151,0,3.1557,3.1557,3.1558,3.1507,3.1505,3.1503,3.1501,3.1552,3.1555,3.1558,0,0,0,0,0,0,0,0,0,0,0,0,0,3.1379,3.1382,3.1509,3.151,3.1511,3.1557,3.1557,3.1558,3.1507,3.1505,3.1502,3.15,3.1551,3.1555,3.1558,0,0,0,0,0,0,0,0,0,0,0,0,0,3.1432,3.1383,3.1509,3.1491,3.149,3.1557,3.1558,3.1558,3.1508,3.1505,3.1502,3.1499,3.155,3.1554,3.1559,3.1647,0,0,3.1573,3.1576,0,0,0,0,0,0,0,0,3.1429,3.1437,3.1493,3.1492,3.1491,3.1523,3.153,3.1588,3.1508,3.1501,3.1501,3.1498,3.1545,3.155,3.1565,3.165,3.1652,3.1574,3.1577,3.1579,3.158,0,0,0,0,0,0,0,3.1426,3.1435,3.1528,3.1494,3.1493,3.1482,3.1486,3.1541,3.1539,3.1501,3.1498,3.1504,3.1544,3.1561,3.1566,3.1653,3.1574,3.1578,3.1581,3.1583,3.1817,3.182,0,0,0,0,0,0,3.1424,3.1432,3.1527,3.153,3.1452,3.1486,3.1491,3.1516,3.1538,3.1539,3.1506,3.1501,3.1554,3.156,3.1568,3.1676,3.1579,3.1583,3.1586,3.1813,3.1817,3.1821,0,0,0,0,0,0,3.1421,3.1432,3.1525,3.148,3.1491,3.1492,3.152,3.1518,3.1535,3.1542,3.1542,3.1524,3.1552,3.1561,3.1629,3.1676,3.1585,3.159,3.1809,3.1814,3.1819,3.189,0,0,0,0,0,0,3.1417,3.1432,3.1464,3.1481,3.1493,3.1584,3.1523,3.1521,3.1543,3.1537,3.1558,3.1559,3.155,3.1622,3.1633,3.1681,3.1593,3.1805,3.1812,3.1817,3.1884,3.1897,3.1909,0,0,0,0,0,3.1413,3.1482,3.1466,3.1478,3.1534,3.1587,3.1594,3.1582,3.1547,3.1581,3.1586,3.1558,3.1669,3.1629,3.1642,3.1692,3.1802,3.181,3.1817,3.1878,3.1895,3.1908,0,0,0,0,0,0,3.1471,3.1484,3.1466,3.1542,3.1564,3.1578,3.162,3.1599,3.1631,3.1624,3.1609,3.1614,3.1687,3.1696,3.1651,3.1781,3.173,3.1741,3.1772,3.1788,3.18,3.1797,3.1597,0,0,0,0,0,3.1492,3.1533,3.1543,3.1609,3.1621,3.1619,3.1641,3.1631,3.1652,3.1661,3.1671,3.1694,3.1735,3.1761,3.1799,3.1885,3.189,3.1926,3.1938,3.1948,3.1958,3.2008,3.2025,3.1846,3.1846,3.1845,0,0,3.1537,3.1549,3.1576,3.1621,3.1636,3.1681,3.1627,3.1675,3.1709,3.1669,3.1734,3.1743,3.1768,3.1846,3.1881,3.1856,3.2009,3.1958,3.1966,3.197,3.2018,3.2035,3.205,3.1851,3.185,3.1849,0,0,3.1643,3.1655,3.1713,3.173,3.1754,3.1753,3.1767,3.1785,3.179,3.1855,3.1827,3.1867,3.1936,3.1956,3.1975,3.2092,3.207,3.2105,3.2171,3.2219,3.2234,3.2246,3.2291,3.2307,3.2114,3.2114,3.2114,0,3.1696,3.1761,3.1746,3.1798,3.182,3.1786,3.1847,3.1864,3.1899,3.1916,3.1887,3.1976,3.199,3.2074,3.2103,3.2119,3.2137,3.2103,3.2233,3.2245,3.2256,3.2299,3.2316,3.2119,3.2118,3.2118,3.2117,0,3.1827,3.1873,3.1917,3.1953,3.198,3.2036,3.2031,3.2061,3.2048,3.2051,3.212,3.2136,3.2178,3.2197,3.2184,3.2281,3.2265,3.2235,3.2184,3.2278,3.2318,3.2334,3.2125,3.2123,3.2122,3.2121,0,0,3.1969,3.1998,3.2015,3.2032,3.2058,3.2094,3.2149,3.219,3.2217,3.2243,3.2292,3.2352,3.2326,3.2348,3.2338,3.2381,3.2477,3.2345,3.2346,3.2372,3.2588,3.2612,3.2631,3.2461,3.2464,3.2466,3.2587,0,3.2077,3.2173,3.2163,3.2255,3.23,3.227,3.2319,3.2341,3.2345,3.2385,3.239,3.2434,3.2394,3.2408,3.2448,3.2456,3.252,3.2447,3.2508,3.2511,3.2505,3.2651,3.2676,3.2789,3.2602,3.2604,3.2606,0,3.2216,3.2248,3.2345,3.2368,3.2386,3.243,3.2468,3.2505,3.2531,3.2532,3.2558,3.2542,3.2601,3.2548,3.263,3.2581,3.2606,3.2614,3.2618,3.2625,3.2566,3.2665,3.2824,3.2842,3.263,3.2628,3.2626,0,3.2314,3.2382,3.2449,3.2465,3.2491,3.2524,3.2537,3.2559,3.2586,3.262,3.2637,3.2678,3.27,3.2733,3.2729,3.269,3.2815,3.276,3.2819,3.282,3.2848,3.2846,3.3016,3.286,3.286,3.2859,3.2859,0,3.2437,3.2499,3.2494,3.2536,3.2605,3.2594,3.2663,3.2672,3.2693,3.2738,3.2714,3.2757,3.2748,3.2791,3.2788,3.286,3.2869,3.2873,3.2872,3.2877,3.2877,3.2894,3.2887,3.2864,3.2863,3.2862,3.2861,0,3.2559,3.2558,3.263,3.265,3.2657,3.2707,3.2725,3.2766,3.2769,3.2826,3.2839,3.2845,3.2895,3.2894,3.2951,3.295,3.3038,3.3026,3.3029,3.3028,3.3088,3.3083,3.3276,3.3302,3.3127,3.3128,3.313,0,3.2639,3.2685,3.2711,3.2739,3.2754,3.28,3.2827,3.2818,3.2848,3.2883,3.2921,3.2969,3.3007,3.3089,3.3099,3.3144,3.3135,3.32,3.3142,3.3146,3.314,3.3138,3.3144,3.3212,3.3214,3.3215,3.3217,0,3.2782,3.278,3.2819,3.286,3.2894,3.2925,3.2954,3.2979,3.2974,3.3009,3.306,3.309,3.3149,3.3199,3.3242,3.3257,3.3238,3.3235,3.3251,3.3257,3.3258,3.3262,3.3063,3.3231,3.3229,3.3228,3.3227,3.3227,3.2887,3.2928,3.2954,3.3,3.3021,3.305,3.309,3.3099,3.3141,3.3189,3.3181,3.324,3.3268,3.3324,3.3343,3.339,3.3368,3.3391,3.3397,3.3404,3.3412,3.3249,3.3398,3.3397,3.3397,3.3396,3.3396,0,3.3031,3.3046,3.3089,3.3131,3.3169,3.3146,3.3178,3.3211,3.3262,3.329,3.3328,3.3389,3.3438,3.3452,3.35,3.3535,3.3528,3.3548,3.3547,3.3551,3.3427,3.341,3.3554,3.3554,3.3554,3.3554,3.3553,3.3553,3.3111,3.3181,3.3183,3.3264,3.3279,3.3336,3.3357,3.3384,3.3406,3.3476,3.3516,3.3525,3.3548,3.3598,3.3642,3.3645,3.3665,3.369,3.3691,3.3575,3.3559,3.3544,3.3528,3.3694,3.3694,3.3811,3.3812,3.3813]},{"header":{"parameterUnit":"m.s-1","parameterCategory":1,"la1":30.2991,"la2":30.254,"lo1":-89.0895,"lo2":-89.0444,"dy":0.0017,"dx":0.0017,"nx":28,"ny":28,"refTime":"2025-07-20T21:00:00:Z","depth":0,"parameterNumber":3,"parameterNumberName":"V-component_of_WINDS"},"data":[0,0,0,0,0,0,0,0,0,0,0,0,0,0,0,0,0,0,0,0,0,0,0,0,0,0,0,0,0,0,0,0,0,0,0,0,0,0,0,0,0,0,0,0,0,0,0,0,0,0,0,0,0,0,0,0,0,0,-1.8378,-1.8379,0,-1.8433,-1.8434,-1.8434,-1.8465,-1.8465,-1.8465,-1.8465,-1.8519,-1.852,-1.8521,0,0,0,0,0,0,0,0,0,0,0,0,0,-1.83,-1.8301,-1.8378,-1.8379,-1.838,-1.8433,-1.8434,-1.8434,-1.8465,-1.8465,-1.8465,-1.8465,-1.8518,-1.852,-1.8521,0,0,0,0,0,0,0,0,0,0,0,0,0,-1.8342,-1.8301,-1.8378,-1.8401,-1.8404,-1.8433,-1.8434,-1.8435,-1.8465,-1.8465,-1.8465,-1.8465,-1.8518,-1.852,-1.8522,-1.8531,0,0,-1.8528,-1.8529,0,0,0,0,0,0,0,0,-1.834,-1.8345,-1.8397,-1.84,-1.8403,-1.8442,-1.8426,-1.8467,-1.8465,-1.8441,-1.8465,-1.8465,-1.8493,-1.8497,-1.8507,-1.8534,-1.8536,-1.8528,-1.8529,-1.853,-1.8531,0,0,0,0,0,0,0,-1.8337,-1.8343,-1.84,-1.8398,-1.8401,-1.8409,-1.8415,-1.8434,-1.8466,-1.8443,-1.8446,-1.8452,-1.8494,-1.8505,-1.8508,-1.8537,-1.8528,-1.853,-1.8531,-1.8532,-1.8577,-1.8577,0,0,0,0,0,0,-1.833,-1.834,-1.8398,-1.8401,-1.8371,-1.841,-1.8417,-1.8429,-1.8466,-1.8471,-1.8452,-1.8453,-1.8501,-1.8506,-1.851,-1.8526,-1.853,-1.8532,-1.8533,-1.8577,-1.8577,-1.8577,0,0,0,0,0,0,-1.8328,-1.8335,-1.8396,-1.8371,-1.838,-1.8411,-1.8425,-1.843,-1.8441,-1.8472,-1.8478,-1.8457,-1.8502,-1.8508,-1.8527,-1.8528,-1.8533,-1.8535,-1.8577,-1.8577,-1.8577,-1.8556,0,0,0,0,0,0,-1.8326,-1.8334,-1.8338,-1.8371,-1.8381,-1.8411,-1.8425,-1.8431,-1.8444,-1.8447,-1.8478,-1.8483,-1.8502,-1.8524,-1.8529,-1.8531,-1.8536,-1.8577,-1.8577,-1.8577,-1.8556,-1.8555,-1.8554,0,0,0,0,0,-1.8323,-1.8329,-1.8338,-1.8345,-1.8386,-1.8411,-1.8417,-1.8439,-1.8444,-1.8449,-1.8469,-1.8482,-1.8527,-1.8525,-1.8531,-1.8534,-1.8577,-1.8577,-1.8577,-1.8557,-1.8555,-1.8554,0,0,0,0,0,0,-1.8293,-1.8333,-1.8344,-1.8361,-1.8382,-1.8416,-1.8422,-1.8436,-1.8456,-1.8457,-1.8484,-1.8491,-1.8508,-1.8523,-1.852,-1.8547,-1.8554,-1.8555,-1.8536,-1.8535,-1.8533,-1.853,-1.8538,0,0,0,0,0,-1.8288,-1.8305,-1.834,-1.8351,-1.8361,-1.839,-1.8401,-1.8417,-1.8441,-1.845,-1.8471,-1.8493,-1.8513,-1.8524,-1.8544,-1.8559,-1.8567,-1.8564,-1.8563,-1.8562,-1.8562,-1.8574,-1.8574,-1.8577,-1.8577,-1.8577,0,0,-1.8279,-1.8303,-1.8312,-1.8346,-1.8364,-1.8382,-1.8397,-1.8414,-1.8428,-1.8452,-1.8472,-1.8489,-1.8515,-1.8533,-1.8542,-1.8546,-1.8563,-1.8562,-1.856,-1.8562,-1.8574,-1.8573,-1.8573,-1.8577,-1.8577,-1.8577,0,0,-1.8271,-1.829,-1.8303,-1.8322,-1.8351,-1.837,-1.8373,-1.8406,-1.8418,-1.8439,-1.8459,-1.8475,-1.8507,-1.8526,-1.8539,-1.8541,-1.8555,-1.8547,-1.854,-1.8551,-1.855,-1.855,-1.8553,-1.8553,-1.8547,-1.8547,-1.8547,0,-1.8255,-1.8282,-1.8307,-1.8324,-1.8339,-1.8364,-1.8377,-1.8394,-1.8428,-1.8438,-1.8442,-1.8485,-1.8504,-1.8528,-1.8529,-1.8539,-1.8544,-1.8543,-1.8548,-1.8549,-1.8549,-1.8551,-1.8552,-1.8546,-1.8546,-1.8547,-1.8547,0,-1.8262,-1.8281,-1.8288,-1.8321,-1.8337,-1.8352,-1.838,-1.8393,-1.8408,-1.8427,-1.8449,-1.8474,-1.8499,-1.8506,-1.852,-1.8533,-1.8535,-1.8543,-1.8551,-1.8547,-1.855,-1.8551,-1.8545,-1.8545,-1.8546,-1.8546,0,0,-1.8235,-1.8284,-1.8286,-1.8303,-1.8338,-1.8353,-1.837,-1.8396,-1.8408,-1.843,-1.8446,-1.8474,-1.8484,-1.8499,-1.8516,-1.8525,-1.8528,-1.8533,-1.8534,-1.8533,-1.8545,-1.8539,-1.854,-1.8537,-1.8537,-1.8538,-1.8544,0,-1.8232,-1.8265,-1.8289,-1.8312,-1.8331,-1.8356,-1.8371,-1.8394,-1.8413,-1.8432,-1.8452,-1.8473,-1.8483,-1.8493,-1.8503,-1.8525,-1.8531,-1.8525,-1.8552,-1.8553,-1.8546,-1.8541,-1.8534,-1.8538,-1.8545,-1.8545,-1.8545,0,-1.8233,-1.8257,-1.8282,-1.8318,-1.8327,-1.834,-1.8368,-1.8385,-1.8413,-1.8426,-1.8445,-1.8463,-1.8483,-1.8489,-1.8517,-1.8513,-1.8526,-1.8539,-1.8539,-1.8543,-1.8549,-1.8545,-1.854,-1.8541,-1.8547,-1.8547,-1.8547,0,-1.8213,-1.8251,-1.8272,-1.8285,-1.8327,-1.8336,-1.8353,-1.8381,-1.8397,-1.8421,-1.8431,-1.8457,-1.8471,-1.8491,-1.8516,-1.8518,-1.8543,-1.855,-1.8555,-1.8554,-1.8559,-1.8558,-1.8556,-1.8566,-1.8566,-1.8566,-1.8566,0,-1.8208,-1.8222,-1.8264,-1.8276,-1.8294,-1.8323,-1.834,-1.836,-1.8385,-1.8402,-1.8425,-1.8441,-1.8473,-1.8493,-1.8512,-1.8534,-1.854,-1.8551,-1.8557,-1.855,-1.8549,-1.8559,-1.8559,-1.8566,-1.8566,-1.8566,-1.8566,0,-1.8187,-1.8215,-1.824,-1.8278,-1.8288,-1.83,-1.8333,-1.8347,-1.8368,-1.839,-1.8397,-1.843,-1.8455,-1.8482,-1.8515,-1.8529,-1.855,-1.8557,-1.8541,-1.8544,-1.8548,-1.8548,-1.8553,-1.8556,-1.8562,-1.8562,-1.8562,0,-1.8183,-1.8195,-1.8236,-1.825,-1.8267,-1.8289,-1.8306,-1.8335,-1.8351,-1.8385,-1.8395,-1.8422,-1.8446,-1.8485,-1.8512,-1.8538,-1.8546,-1.8547,-1.855,-1.8544,-1.8548,-1.8547,-1.8549,-1.8545,-1.8545,-1.8545,-1.8545,0,-1.8172,-1.8186,-1.8209,-1.8238,-1.8257,-1.8281,-1.8306,-1.8316,-1.835,-1.8368,-1.8394,-1.8413,-1.8449,-1.8476,-1.8506,-1.8524,-1.8541,-1.8544,-1.8546,-1.854,-1.8531,-1.8537,-1.8539,-1.8543,-1.8543,-1.8543,-1.8543,-1.8543,-1.816,-1.8173,-1.8205,-1.823,-1.8253,-1.8276,-1.8292,-1.8316,-1.8339,-1.8371,-1.8387,-1.8414,-1.8444,-1.8487,-1.8505,-1.8527,-1.8532,-1.8535,-1.8536,-1.8537,-1.8536,-1.8527,-1.8532,-1.8532,-1.8532,-1.8533,-1.8533,0,-1.8152,-1.8174,-1.8197,-1.8232,-1.8253,-1.8268,-1.8297,-1.8313,-1.8337,-1.8364,-1.8387,-1.8419,-1.8446,-1.8476,-1.8506,-1.8518,-1.8526,-1.8524,-1.8524,-1.8528,-1.8529,-1.8525,-1.8517,-1.8517,-1.8517,-1.8517,-1.8517,-1.8517,-1.815,-1.8174,-1.8192,-1.8227,-1.8249,-1.8277,-1.8292,-1.8315,-1.8336,-1.8371,-1.8395,-1.8415,-1.8443,-1.8475,-1.8501,-1.851,-1.852,-1.8516,-1.8527,-1.8527,-1.8528,-1.8529,-1.8525,-1.8518,-1.8518,-1.8524,-1.8524,-1.8524]}]]